When you browse on this site, cookies collect data to enhance your experience and personalize the content and advertising you see.
Visit our Privacy Policy to learn more. By continuing to use the site, you agree to this use of cookies and data.
  • In Schweiz
  • Länderverzeichnis
  • Für 7 Tage
  • Wassertemperatur
  • Wetterkarte
  • Widgets
  • user-avatar
    Anmelden

    Stündliche Wetter Slovyansk

    Heute, 22 Februar, Samstag

    Zeit Temperatur Niederschläge Wind Luftdruck Luftfeuchtigkeit
    00:00 0°C° 0.1 mm 3 m/S 760 mmHg 98%
    01:00 0°C° 0 mm 3 m/S 760 mmHg 98%
    02:00 0°C° 0 mm 3 m/S 761 mmHg 98%
    03:00 0°C° 0 mm 3 m/S 760 mmHg 97%
    04:00 0°C° 0.1 mm 3 m/S 760 mmHg 97%
    05:00 0°C° 0.1 mm 3 m/S 761 mmHg 97%
    06:00 0°C° 0.1 mm 3 m/S 761 mmHg 98%
    07:00 0°C° 0.1 mm 3 m/S 761 mmHg 97%
    08:00 0°C° 0.1 mm 3 m/S 761 mmHg 97%
    09:00 0°C° 0 mm 3 m/S 762 mmHg 98%
    10:00 0°C° 0 mm 3 m/S 762 mmHg 97%
    11:00 0°C° 0 mm 3 m/S 762 mmHg 97%
    12:00 0°C° 0 mm 3 m/S 762 mmHg 97%
    13:00 +1°C° 0 mm 3 m/S 762 mmHg 97%
    14:00 +1°C° 0 mm 3 m/S 762 mmHg 97%
    15:00 +2°C° 0 mm 2 m/S 762 mmHg 98%
    16:00 +1°C° 0.3 mm 2 m/S 762 mmHg 98%
    17:00 +1°C° 0.3 mm 2 m/S 762 mmHg 98%
    18:00 +1°C° 0.3 mm 2 m/S 762 mmHg 98%
    19:00 +1°C° 0.1 mm 2 m/S 762 mmHg 98%
    20:00 +1°C° 0.1 mm 2 m/S 762 mmHg 98%
    21:00 +1°C° 0.1 mm 2 m/S 762 mmHg 98%
    22:00 +2°C° 0.1 mm 1 m/S 761 mmHg 98%
    23:00 +2°C° 0.1 mm 1 m/S 761 mmHg 98%

    Morgen, 23 Februar, Sonntag

    Zeit Temperatur Niederschläge Wind Luftdruck Luftfeuchtigkeit
    00:00 +2°C° 0.1 mm 1 m/S 761 mmHg 99%
    01:00 +2°C° 0 mm 1 m/S 761 mmHg 98%
    02:00 +1°C° 0 mm 0 m/S 760 mmHg 98%
    03:00 +1°C° 0 mm 0 m/S 760 mmHg 98%
    04:00 +2°C° 0 mm 1 m/S 759 mmHg 98%
    05:00 +2°C° 0 mm 1 m/S 759 mmHg 98%
    06:00 +1°C° 0 mm 2 m/S 758 mmHg 97%
    07:00 0°C° 0 mm 3 m/S 758 mmHg 95%
    08:00 0°C° 0 mm 3 m/S 758 mmHg 92%
    09:00 -1°C° 0 mm 4 m/S 758 mmHg 90%
    10:00 -1°C° 0 mm 5 m/S 757 mmHg 87%
    11:00 -1°C° 0 mm 6 m/S 757 mmHg 84%
    12:00 +1°C° 0 mm 6 m/S 756 mmHg 81%
    13:00 0°C° 0.1 mm 7 m/S 756 mmHg 81%
    14:00 0°C° 0.1 mm 7 m/S 755 mmHg 81%
    15:00 0°C° 0.1 mm 8 m/S 754 mmHg 81%
    16:00 0°C° 0.4 mm 8 m/S 753 mmHg 86%
    17:00 0°C° 0.4 mm 9 m/S 753 mmHg 91%
    18:00 -1°C° 0.4 mm 9 m/S 752 mmHg 96%
    19:00 0°C° 0.2 mm 9 m/S 752 mmHg 95%
    20:00 0°C° 0.2 mm 9 m/S 751 mmHg 94%
    21:00 0°C° 0.2 mm 9 m/S 751 mmHg 93%
    22:00 0°C° 0.5 mm 8 m/S 751 mmHg 94%
    23:00 0°C° 0.5 mm 8 m/S 750 mmHg 95%

    übermorgen, 24 Februar, Montag

    Zeit Temperatur Niederschläge Wind Luftdruck Luftfeuchtigkeit
    00:00 0°C° 0.5 mm 8 m/S 750 mmHg 96%
    01:00 0°C° 0.1 mm 7 m/S 750 mmHg 94%
    02:00 +1°C° 0.1 mm 6 m/S 750 mmHg 92%
    03:00 +1°C° 0.1 mm 5 m/S 749 mmHg 90%
    04:00 +1°C° 0 mm 5 m/S 749 mmHg 91%
    05:00 0°C° 0 mm 5 m/S 748 mmHg 91%
    06:00 0°C° 0 mm 5 m/S 747 mmHg 92%
    07:00 +1°C° 0.6 mm 5 m/S 746 mmHg 92%
    08:00 +1°C° 0.6 mm 6 m/S 745 mmHg 93%
    09:00 +2°C° 0.6 mm 7 m/S 744 mmHg 93%
    10:00 +1°C° 0.8 mm 8 m/S 742 mmHg 93%
    11:00 +1°C° 0.8 mm 9 m/S 741 mmHg 93%
    12:00 +1°C° 0.8 mm 10 m/S 739 mmHg 93%
    13:00 +1°C° 1.2 mm 9 m/S 738 mmHg 94%
    14:00 +1°C° 1.2 mm 9 m/S 737 mmHg 95%
    15:00 +1°C° 1.2 mm 8 m/S 736 mmHg 96%
    16:00 +2°C° 0.5 mm 6 m/S 735 mmHg 96%
    17:00 +2°C° 0.5 mm 5 m/S 735 mmHg 96%
    18:00 +3°C° 0.5 mm 3 m/S 735 mmHg 96%
    19:00 +2°C° 1.8 mm 6 m/S 736 mmHg 96%
    20:00 0°C° 1.8 mm 8 m/S 737 mmHg 96%
    21:00 -2°C° 1.8 mm 11 m/S 737 mmHg 96%
    22:00 -2°C° 0.8 mm 11 m/S 739 mmHg 93%
    23:00 -2°C° 0.8 mm 12 m/S 740 mmHg 91%

    25 Februar, Dienstag

    Zeit Temperatur Niederschläge Wind Luftdruck Luftfeuchtigkeit
    00:00 -4°C° 0.8 mm 13 m/S 741 mmHg 88%
    01:00 -3°C° 0 mm 12 m/S 742 mmHg 85%
    02:00 -3°C° 0 mm 11 m/S 744 mmHg 82%
    03:00 -3°C° 0 mm 10 m/S 746 mmHg 79%
    04:00 -4°C° 0 mm 9 m/S 747 mmHg 78%
    05:00 -4°C° 0 mm 9 m/S 748 mmHg 78%
    06:00 -5°C° 0 mm 8 m/S 750 mmHg 77%
    07:00 -5°C° 0 mm 8 m/S 751 mmHg 76%
    08:00 -4°C° 0 mm 8 m/S 752 mmHg 75%
    09:00 -3°C° 0 mm 7 m/S 753 mmHg 75%
    10:00 -2°C° 0 mm 7 m/S 753 mmHg 71%
    11:00 -1°C° 0 mm 7 m/S 754 mmHg 68%
    12:00 +1°C° 0 mm 6 m/S 754 mmHg 64%
    13:00 +1°C° 0 mm 6 m/S 754 mmHg 62%
    14:00 +2°C° 0 mm 6 m/S 755 mmHg 60%
    15:00 +2°C° 0 mm 5 m/S 755 mmHg 59%
    16:00 +3°C° 0 mm 4 m/S 755 mmHg 63%
    17:00 +1°C° 0 mm 4 m/S 755 mmHg 68%
    18:00 +2°C° 0 mm 3 m/S 754 mmHg 72%
    19:00 +1°C° 0 mm 3 m/S 754 mmHg 75%
    20:00 0°C° 0 mm 4 m/S 754 mmHg 77%
    21:00 0°C° 0 mm 4 m/S 754 mmHg 79%
    22:00 0°C° 0 mm 4 m/S 754 mmHg 80%
    23:00 0°C° 0 mm 5 m/S 754 mmHg 81%

    26 Februar, Mittwoch

    Zeit Temperatur Niederschläge Wind Luftdruck Luftfeuchtigkeit
    00:00 0°C° 0 mm 5 m/S 754 mmHg 81%
    01:00 0°C° 0 mm 5 m/S 753 mmHg 83%
    02:00 -1°C° 0 mm 6 m/S 753 mmHg 84%
    03:00 -1°C° 0 mm 6 m/S 753 mmHg 85%
    04:00 -1°C° 0 mm 6 m/S 752 mmHg 86%
    05:00 -1°C° 0 mm 6 m/S 752 mmHg 86%
    06:00 -1°C° 0 mm 6 m/S 752 mmHg 87%
    07:00 -1°C° 0 mm 6 m/S 751 mmHg 83%
    08:00 0°C° 0 mm 7 m/S 751 mmHg 80%
    09:00 0°C° 0 mm 7 m/S 751 mmHg 76%
    10:00 +2°C° 0 mm 7 m/S 751 mmHg 71%
    11:00 +3°C° 0 mm 7 m/S 751 mmHg 65%
    12:00 +5°C° 0 mm 8 m/S 751 mmHg 59%
    13:00 +5°C° 0 mm 8 m/S 750 mmHg 59%
    14:00 +6°C° 0 mm 8 m/S 750 mmHg 58%
    15:00 +7°C° 0 mm 8 m/S 749 mmHg 57%
    16:00 +6°C° 0 mm 8 m/S 749 mmHg 60%
    17:00 +5°C° 0 mm 7 m/S 748 mmHg 63%
    18:00 +5°C° 0 mm 6 m/S 748 mmHg 66%
    19:00 +4°C° 0 mm 7 m/S 748 mmHg 69%
    20:00 +3°C° 0 mm 7 m/S 748 mmHg 72%
    21:00 +3°C° 0 mm 7 m/S 749 mmHg 76%
    22:00 +2°C° 0 mm 6 m/S 749 mmHg 76%
    23:00 +2°C° 0 mm 6 m/S 748 mmHg 77%

    27 Februar, Donnerstag

    Zeit Temperatur Niederschläge Wind Luftdruck Luftfeuchtigkeit
    00:00 +2°C° 0 mm 6 m/S 748 mmHg 77%
    01:00 +2°C° 0 mm 6 m/S 748 mmHg 79%
    02:00 +1°C° 0 mm 5 m/S 748 mmHg 80%
    03:00 +1°C° 0 mm 5 m/S 748 mmHg 81%
    04:00 +1°C° 0 mm 5 m/S 748 mmHg 82%
    05:00 +1°C° 0 mm 5 m/S 747 mmHg 84%
    06:00 +1°C° 0 mm 5 m/S 747 mmHg 85%
    07:00 +1°C° 0 mm 5 m/S 747 mmHg 84%
    08:00 +2°C° 0 mm 5 m/S 747 mmHg 84%
    09:00 +3°C° 0 mm 6 m/S 747 mmHg 83%
    10:00 +4°C° 0 mm 6 m/S 747 mmHg 80%
    11:00 +5°C° 0 mm 6 m/S 747 mmHg 77%
    12:00 +7°C° 0 mm 6 m/S 747 mmHg 74%
    13:00 +9°C° 0 mm 6 m/S 747 mmHg 67%
    14:00 +10°C° 0 mm 6 m/S 746 mmHg 60%
    15:00 +11°C° 0 mm 6 m/S 746 mmHg 54%
    16:00 +10°C° 0 mm 6 m/S 746 mmHg 60%
    17:00 +10°C° 0 mm 5 m/S 746 mmHg 66%
    18:00 +9°C° 0 mm 5 m/S 746 mmHg 72%
    19:00 +8°C° 0 mm 4 m/S 747 mmHg 76%
    20:00 +8°C° 0 mm 4 m/S 747 mmHg 81%
    21:00 +7°C° 0 mm 4 m/S 747 mmHg 86%
    22:00 +7°C° 0 mm 4 m/S 748 mmHg 88%
    23:00 +6°C° 0 mm 4 m/S 748 mmHg 90%
    Mehr zeigen